Weather History for Taos, NM

Change the Weather History Date:

Tuesday, July 31, 2012

  Actual Average Record
Temperature  
Mean Temperature 72 °F -  
Max Temperature 87 °F 80 °F 89 °F (2002)
Min Temperature 57 °F 49 °F 42 °F (2004)
Cooling Degree Days 7    
Growing Degree Days 22 (Base 50)    
Moisture  
Dew Point 42 °F    
Average Humidity 34    
Maximum Humidity 51    
Minimum Humidity 21    
Precipitation  
Precipitation 0.00 in - - ()
Sea Level Pressure  
Sea Level Pressure 30.35 in    
Wind  
Wind Speed 7 mph (East)    
Max Wind Speed 24 mph    
Max Gust Speed 33 mph    
Visibility 10 miles    
Events Thunderstorm    
Averages and records for this station are not official NWS values.
T = Trace of Precipitation, MM = Missing Value Source: NWS Daily Summary

Daily Weather History Graph

Daily Weather History Graph

Search for Another Location

Airport:

Trip Planner

Search our weather history database for the weather conditions in past years. The results will help you decide how hot, cold, wet, or windy it might be!

Date:

Astronomy

Jul. 31, 2012 Rise Set
Actual Time 6:08 AM MDT 8:08 PM MDT
Civil Twilight 5:40 AM MDT 8:37 PM MDT
Nautical Twilight 5:05 AM MDT 9:11 PM MDT
Astronomical Twilight 4:28 AM MDT 9:49 PM MDT
Moon 7:00 PM MDT (7/31) 4:33 AM MDT (7/31)
Length of Visible Light 14h 57m
Length of Day
14h 00m
Waxing Gibbous, 97% of the Moon is Illuminated
Jul 31
Waxing Gibbous
Aug 1
Full
Aug 9
Last Quarter
Aug 17
New
Aug 24
First Quarter

Hourly Weather History & Observations

Time (MDT) Temp. Dew Point Humidity Pressure Visibility Wind Dir Wind Speed Gust Speed Precip Events Conditions
12:15 AM 69.8 °F 41.0 °F 35% 30.31 in 10.0 mi ESE 8.1 mph - N/A   Mostly Cloudy
12:35 AM 69.8 °F 39.2 °F 33% 30.32 in 10.0 mi East 3.5 mph - N/A   Mostly Cloudy
12:55 AM 69.8 °F 39.2 °F 33% 30.32 in 10.0 mi Calm Calm - N/A   Partly Cloudy
1:15 AM 68.0 °F 39.2 °F 35% 30.32 in 10.0 mi Calm Calm - N/A   Scattered Clouds
1:35 AM 66.2 °F 39.2 °F 37% 30.32 in 10.0 mi Calm Calm - N/A   Mostly Cloudy
1:55 AM 66.2 °F 39.2 °F 37% 30.32 in 10.0 mi Calm Calm - N/A   Mostly Cloudy
2:15 AM 64.4 °F 39.2 °F 40% 30.32 in 10.0 mi NE 5.8 mph - N/A   Clear
2:35 AM 64.4 °F 39.2 °F 40% 30.32 in 10.0 mi NE 9.2 mph - N/A   Clear
2:55 AM 66.2 °F 39.2 °F 37% 30.33 in 10.0 mi NE 10.4 mph - N/A   Partly Cloudy
3:15 AM 64.4 °F 39.2 °F 40% 30.33 in 10.0 mi NE 4.6 mph - N/A   Partly Cloudy
3:35 AM 62.6 °F 39.2 °F 42% 30.33 in 10.0 mi East 5.8 mph - N/A   Clear
3:55 AM 64.4 °F 39.2 °F 40% 30.34 in 10.0 mi ENE 4.6 mph - N/A   Clear
4:15 AM 62.6 °F 39.2 °F 42% 30.34 in 10.0 mi ENE 6.9 mph - N/A   Clear
4:35 AM 64.4 °F 41.0 °F 42% 30.34 in 10.0 mi East 6.9 mph - N/A   Scattered Clouds
4:55 AM 62.6 °F 39.2 °F 42% 30.35 in 10.0 mi Calm Calm - N/A   Overcast
5:15 AM 60.8 °F 39.2 °F 45% 30.35 in 10.0 mi North 5.8 mph - N/A   Mostly Cloudy
5:35 AM 60.8 °F 37.4 °F 42% 30.36 in 10.0 mi North 8.1 mph - N/A   Partly Cloudy
5:55 AM 57.2 °F 39.2 °F 51% 30.36 in 10.0 mi NNE 5.8 mph - N/A   Clear
6:15 AM 57.2 °F 39.2 °F 51% 30.37 in 10.0 mi NNE 3.5 mph - N/A   Clear
6:35 AM 59.0 °F 39.2 °F 48% 30.38 in 10.0 mi Calm Calm - N/A   Partly Cloudy
6:55 AM 60.8 °F 39.2 °F 45% 30.39 in 10.0 mi Calm Calm - N/A   Mostly Cloudy
7:15 AM 69.8 °F 48.2 °F 46% 30.39 in 10.0 mi East 9.2 mph - N/A   Overcast
7:35 AM 69.8 °F 46.4 °F 43% 30.39 in 10.0 mi SE 8.1 mph - N/A   Mostly Cloudy
7:55 AM 69.8 °F 48.2 °F 46% 30.40 in 10.0 mi SE 6.9 mph - N/A   Clear
8:15 AM 73.4 °F 48.2 °F 41% 30.40 in 10.0 mi East 8.1 mph - N/A   Clear
8:35 AM 73.4 °F 48.2 °F 41% 30.40 in 10.0 mi NW 6.9 mph - N/A   Clear
8:55 AM 73.4 °F 48.2 °F 41% 30.40 in 10.0 mi North 5.8 mph - N/A   Clear
9:15 AM 75.2 °F 46.4 °F 36% 30.40 in 10.0 mi Calm Calm - N/A   Clear
9:35 AM 78.8 °F 46.4 °F 32% 30.40 in 10.0 mi Calm Calm - N/A   Clear
9:55 AM 78.8 °F 46.4 °F 32% 30.39 in 10.0 mi NNW 4.6 mph - N/A   Clear
10:15 AM 80.6 °F 46.4 °F 30% 30.39 in 10.0 mi ENE 3.5 mph - N/A   Clear
10:35 AM 80.6 °F 46.4 °F 30% 30.39 in 10.0 mi NNW 6.9 mph - N/A   Clear
10:55 AM 82.4 °F 46.4 °F 28% 30.39 in 10.0 mi NNW 4.6 mph - N/A   Clear
11:15 AM 80.6 °F 44.6 °F 28% 30.38 in 10.0 mi Calm Calm - N/A   Clear
11:35 AM 80.6 °F 44.6 °F 28% 30.37 in 10.0 mi WNW 3.5 mph - N/A   Clear
11:55 AM 82.4 °F 44.6 °F 26% 30.37 in 10.0 mi WSW 6.9 mph - N/A   Clear
12:15 PM 80.6 °F 44.6 °F 28% 30.37 in 10.0 mi SW 6.9 mph - N/A   Clear
12:35 PM 82.4 °F 44.6 °F 26% 30.37 in 10.0 mi South 4.6 mph - N/A   Clear
1:15 PM 86.0 °F 46.4 °F 25% 30.35 in 10.0 mi SE 10.4 mph - N/A   Clear
1:35 PM 87.8 °F 46.4 °F 24% 30.35 in 10.0 mi SE 11.5 mph - N/A   Clear
1:55 PM 87.8 °F 44.6 °F 22% 30.34 in 10.0 mi SSE 9.2 mph - N/A   Clear
2:15 PM 84.2 °F 44.6 °F 25% 30.34 in 10.0 mi SE 11.5 mph 17.3 mph N/A   Clear
2:35 PM 84.2 °F 44.6 °F 25% 30.33 in 10.0 mi ESE 11.5 mph - N/A   Clear
2:55 PM 84.2 °F 44.6 °F 25% 30.33 in 10.0 mi SE 11.5 mph - N/A   Clear
3:15 PM 82.4 °F 44.6 °F 26% 30.32 in 10.0 mi SSE 16.1 mph 20.7 mph N/A   Clear
3:35 PM 80.6 °F 42.8 °F 26% 30.33 in 10.0 mi South 18.4 mph 24.2 mph N/A Thunderstorm Clear
3:55 PM 78.8 °F 41.0 °F 26% 30.33 in 10.0 mi South 13.8 mph - N/A   Clear
4:15 PM 78.8 °F 41.0 °F 26% 30.32 in 10.0 mi SSE 13.8 mph - N/A   Mostly Cloudy
4:35 PM 78.8 °F 41.0 °F 26% 30.31 in 10.0 mi SE 16.1 mph - N/A   Scattered Clouds
4:55 PM 78.8 °F 41.0 °F 26% 30.29 in 10.0 mi SSE 10.4 mph 19.6 mph N/A   Partly Cloudy
5:15 PM 78.8 °F 39.2 °F 24% 30.28 in 10.0 mi ESE 16.1 mph 20.7 mph N/A   Mostly Cloudy
5:35 PM 80.6 °F 37.4 °F 21% 30.29 in 10.0 mi SE 10.4 mph - N/A   Mostly Cloudy
5:55 PM 78.8 °F 37.4 °F 23% 30.29 in 10.0 mi South 11.5 mph - N/A   Scattered Clouds
6:15 PM 80.6 °F 37.4 °F 21% 30.28 in 10.0 mi SSW 15.0 mph - N/A   Clear
6:35 PM 80.6 °F 39.2 °F 23% 30.29 in 10.0 mi WSW 8.1 mph - N/A   Clear
6:55 PM 78.8 °F 39.2 °F 24% 30.30 in 10.0 mi ESE 9.2 mph - N/A   Clear
7:15 PM 75.2 °F 41.0 °F 29% 30.30 in 10.0 mi SE 9.2 mph - N/A   Clear
7:35 PM 75.2 °F 39.2 °F 27% 30.31 in 10.0 mi SE 6.9 mph - N/A   Clear
7:55 PM 73.4 °F 39.2 °F 29% 30.31 in 10.0 mi ESE 9.2 mph - N/A   Clear
8:15 PM 69.8 °F 39.2 °F 33% 30.31 in 10.0 mi East 9.2 mph - N/A   Clear
8:35 PM 69.8 °F 42.8 °F 38% 30.32 in 10.0 mi East 8.1 mph - N/A   Clear
8:55 PM 68.0 °F 41.0 °F 37% 30.33 in 10.0 mi East 6.9 mph - N/A   Clear
9:15 PM 66.2 °F 39.2 °F 37% 30.34 in 10.0 mi East 6.9 mph - N/A   Scattered Clouds
9:35 PM 66.2 °F 41.0 °F 40% 30.35 in 10.0 mi East 4.6 mph - N/A   Mostly Cloudy
9:55 PM 69.8 °F 41.0 °F 35% 30.35 in 10.0 mi ENE 6.9 mph - N/A   Partly Cloudy
10:15 PM 71.6 °F 39.2 °F 31% 30.36 in 10.0 mi North 6.9 mph - N/A   Clear
10:35 PM 71.6 °F 41.0 °F 33% 30.37 in 10.0 mi North 16.1 mph - N/A   Clear
11:15 PM 69.8 °F 46.4 °F 43% 30.37 in 10.0 mi North 24.2 mph 33.4 mph N/A   Clear
11:35 PM 68.0 °F 44.6 °F 43% 30.37 in 10.0 mi North 24.2 mph 29.9 mph N/A   Clear
11:55 PM 66.2 °F 44.6 °F 46% 30.38 in 10.0 mi North 17.3 mph 25.3 mph N/A   Clear